Kelso-Longview, WA
on Wednesday, February 6, 2013

Wednesday
Previous Day Next Day
Daily Summary
 ActualAverage (KSPB)Record (KSPB)
Temperature
Mean Temperature °F °F  
Max Temperature 48°F °F 60°F (2012)
Min Temperature 42°F °F 19°F (2014)
Degree Days
Heating Degree Days 20    
Month to date heating degree days  
Since 1 July heating degree days  
Cooling Degree Days 0    
Month to date cooling degree days  
Year to date cooling degree days  
Moisture
Dew Point 39°F   
Average Humidity 75    
Maximum Humidity 87    
Minimum Humidity 66    
Precipitation
Precipitation 0.10 in in 1.88 in (1999)
Month to date precipitation  
Year to date precipitation  
Wind
Wind Speed 9 mph   
Max Wind Speed 15 mph   
Max Gust Speed 24 mph   
Visibility 10 miles   
Events     

Key: T is trace of precipitation, MM is missing value
Source: NWS Daily Summary
Time(PST)TemperatureDew PointHumidity Pressure Visibility Wind DirectionWind SpeedGust SpeedPrecipitationEvents Conditions
12:15 AM 44.6°F 39.2°F 81% 30.03 in 10.0 miles SSE 9.2 mph - N/A   Overcast
12:35 AM 44.6°F 39.2°F 81% 30.04 in 10.0 miles SSE 6.9 mph - N/A   Overcast
12:55 AM 44.6°F 39.2°F 81% 30.04 in 10.0 miles SSE 5.8 mph - N/A   Overcast
1:15 AM 44.6°F 39.2°F 81% 30.05 in 10.0 miles SSE 5.8 mph - N/A   Overcast
1:35 AM 44.6°F 39.2°F 81% 30.05 in 10.0 miles SE 6.9 mph - N/A   Overcast
1:55 AM 44.6°F 39.2°F 81% 30.05 in 10.0 miles SSE 6.9 mph - N/A   Overcast
2:15 AM 44.6°F 39.2°F 81% 30.06 in 10.0 miles SSE 9.2 mph - N/A   Overcast
2:35 AM 44.6°F 39.2°F 81% 30.06 in 10.0 miles SSE 9.2 mph - N/A   Overcast
2:55 AM 44.6°F 39.2°F 81% 30.07 in 10.0 miles SSE 5.8 mph - 0.01 in   Overcast
3:15 AM 44.6°F 39.2°F 81% 30.07 in 10.0 miles SSE 8.1 mph - N/A   Overcast
3:35 AM 44.6°F 39.2°F 81% 30.07 in 10.0 miles SSE 5.8 mph - N/A   Overcast
3:55 AM 44.6°F 39.2°F 81% 30.07 in 10.0 miles SSE 8.1 mph - N/A   Overcast
4:15 AM 44.6°F 39.2°F 81% 30.07 in 10.0 miles SE 9.2 mph - N/A   Overcast
4:35 AM 42.8°F 39.2°F 87% 30.07 in 10.0 miles SE 8.1 mph - N/A   Overcast
4:55 AM 42.8°F 39.2°F 87% 30.08 in 10.0 miles SSE 8.1 mph - N/A   Overcast
5:35 AM 42.8°F 39.2°F 87% 30.08 in 10.0 miles SSE 8.1 mph - N/A   Mostly Cloudy
5:55 AM 42.8°F 37.4°F 81% 30.08 in 10.0 miles SE 9.2 mph - N/A   Overcast
6:15 AM 42.8°F 37.4°F 81% 30.08 in 10.0 miles SE 6.9 mph - N/A   Overcast
7:15 AM 42.8°F 37.4°F 81% 30.08 in 10.0 miles SE 9.2 mph - N/A   Overcast
7:35 AM 42.8°F 37.4°F 81% 30.09 in 10.0 miles SE 8.1 mph - N/A   Overcast
7:55 AM 44.6°F 37.4°F 76% 30.09 in 10.0 miles SSE 6.9 mph - N/A   Overcast
8:35 AM 44.6°F 39.2°F 81% 30.09 in 10.0 miles SSE 8.1 mph 17.3 mph N/A   Overcast
8:55 AM 44.6°F 39.2°F 81% 30.08 in 10.0 miles SSE 10.4 mph - N/A   Overcast
9:15 AM 44.6°F 39.2°F 81% 30.09 in 10.0 miles SSE 6.9 mph 18.4 mph N/A   Overcast
9:35 AM 44.6°F 39.2°F 81% 30.08 in 10.0 miles SE 9.2 mph - N/A   Overcast
9:55 AM 46.4°F 39.2°F 76% 30.07 in 10.0 miles SE 12.7 mph 19.6 mph N/A   Overcast
10:15 AM 46.4°F 39.2°F 76% 30.08 in 10.0 miles SSE 11.5 mph 16.1 mph N/A   Overcast
10:35 AM 46.4°F 39.2°F 76% 30.08 in 10.0 miles SSE 8.1 mph - N/A   Overcast
10:55 AM 46.4°F 39.2°F 76% 30.07 in 10.0 miles SSE 10.4 mph - N/A   Overcast
11:15 AM 46.4°F 39.2°F 76% 30.06 in 10.0 miles SSE 11.5 mph - N/A   Overcast
11:35 AM 48.2°F 39.2°F 71% 30.06 in 10.0 miles SSE 12.7 mph 19.6 mph N/A   Overcast
11:55 AM 48.2°F 39.2°F 71% 30.05 in 10.0 miles SSE 15.0 mph 19.6 mph N/A   Overcast
12:15 PM 48.2°F 39.2°F 71% 30.04 in 10.0 miles SSE 8.1 mph - N/A   Overcast
12:35 PM 48.2°F 39.2°F 71% 30.03 in 10.0 miles SE 10.4 mph 16.1 mph N/A   Overcast
12:55 PM 48.2°F 39.2°F 71% 30.02 in 10.0 miles SE 9.2 mph 19.6 mph N/A   Overcast
1:15 PM 48.2°F 39.2°F 71% 30.01 in 10.0 miles SSE 6.9 mph - N/A   Overcast
1:35 PM 48.2°F 39.2°F 71% 30.01 in 10.0 miles SSE 4.6 mph - N/A   Overcast
1:55 PM 48.2°F 39.2°F 71% 29.99 in 10.0 miles ESE 5.8 mph - N/A   Overcast
2:15 PM 48.2°F 39.2°F 71% 29.98 in 10.0 miles SSE 8.1 mph - N/A   Overcast
2:35 PM 48.2°F 37.4°F 66% 29.98 in 10.0 miles SSE 10.4 mph 16.1 mph N/A   Overcast
2:55 PM 48.2°F 37.4°F 66% 29.98 in 10.0 miles SE 13.8 mph - N/A   Overcast
3:15 PM 48.2°F 39.2°F 71% 29.97 in 10.0 miles SE 11.5 mph - N/A   Overcast
3:35 PM 48.2°F 39.2°F 71% 29.97 in 10.0 miles SSE 10.4 mph - N/A   Overcast
3:55 PM 48.2°F 39.2°F 71% 29.96 in 10.0 miles SSE 11.5 mph 17.3 mph N/A   Overcast
4:15 PM 48.2°F 39.2°F 71% 29.95 in 10.0 miles SSE 6.9 mph - N/A   Overcast
4:35 PM 48.2°F 39.2°F 71% 29.94 in 10.0 miles South 8.1 mph - N/A   Mostly Cloudy
4:55 PM 48.2°F 39.2°F 71% 29.93 in 10.0 miles SSE 5.8 mph - N/A   Mostly Cloudy
5:15 PM 48.2°F 39.2°F 71% 29.93 in 10.0 miles SSE 9.2 mph - N/A   Overcast
5:35 PM 48.2°F 37.4°F 66% 29.92 in 10.0 miles SSE 9.2 mph - N/A   Overcast
5:55 PM 48.2°F 37.4°F 66% 29.91 in 10.0 miles SE 11.5 mph - N/A   Overcast
6:15 PM 48.2°F 37.4°F 66% 29.90 in 10.0 miles SE 10.4 mph 18.4 mph N/A   Overcast
6:35 PM 48.2°F 37.4°F 66% 29.89 in 10.0 miles ESE 8.1 mph - N/A   Overcast
6:55 PM 48.2°F 37.4°F 66% 29.88 in 10.0 miles ESE 6.9 mph - N/A   Overcast
7:15 PM 48.2°F 37.4°F 66% 29.86 in 10.0 miles SE 8.1 mph 18.4 mph N/A   Mostly Cloudy
7:35 PM 48.2°F 37.4°F 66% 29.86 in 10.0 miles SE 10.4 mph 16.1 mph N/A   Mostly Cloudy
7:55 PM 48.2°F 37.4°F 66% 29.86 in 10.0 miles SE 8.1 mph 16.1 mph N/A   Mostly Cloudy
8:15 PM 48.2°F 37.4°F 66% 29.85 in 10.0 miles SE 10.4 mph 16.1 mph N/A   Overcast
8:35 PM 48.2°F 37.4°F 66% 29.83 in 10.0 miles ESE 15.0 mph 24.2 mph N/A   Mostly Cloudy
8:55 PM 48.2°F 37.4°F 66% 29.84 in 10.0 miles SE 11.5 mph 18.4 mph N/A   Mostly Cloudy
9:15 PM 48.2°F 37.4°F 66% 29.83 in 10.0 miles SSE 6.9 mph - N/A   Overcast
9:35 PM 48.2°F 37.4°F 66% 29.83 in 10.0 miles South 9.2 mph 19.6 mph N/A   Overcast
9:55 PM 48.2°F 39.2°F 71% 29.83 in 10.0 miles SSE 10.4 mph 19.6 mph 0.01 in   Overcast
10:15 PM 46.4°F 39.2°F 76% 29.82 in 10.0 miles SE 11.5 mph - 0.02 in   Overcast
10:35 PM 46.4°F 39.2°F 76% 29.82 in 10.0 miles SSE 11.5 mph 21.9 mph 0.04 in   Overcast
10:55 PM 44.6°F 39.2°F 81% 29.84 in 10.0 miles South 9.2 mph 17.3 mph 0.04 in   Overcast
11:15 PM 44.6°F 39.2°F 81% 29.85 in 10.0 miles SSE 11.5 mph 17.3 mph 0.01 in   Overcast
11:35 PM 44.6°F 39.2°F 81% 29.87 in 9.0 miles South 8.1 mph 18.4 mph 0.04 in   Mostly Cloudy
11:55 PM 44.6°F 37.4°F 76% 29.88 in 10.0 miles SSE 6.9 mph - 0.04 in   Overcast
Moon Phase
Feb. 06 Feb. 10 Feb. 17 Feb. 25 Mar. 04
Sunrise:07:27 AM (PST) Moon Rise:04:22 AM (PST)2/6
Sunset:05:24 PM (PST) Moon Set:01:42 PM (PST)2/6

Copyright © 2014 The Weather Underground, Inc.